Location: Home
(42.5358°N, 72.7383°W)
Time: 01:14:54
(UTC-04:00)

JY1SAT - Visible Passes

Search period start: 26 June 2022 00:00
Search period end: 06 July 2022 00:00
Orbit: 566 x 585 km, 97.6° (Epoch: 25 June)

Date Brightness Start Highest point End Pass type
(mag) Time Alt. Az. Time Alt. Az. Time Alt. Az.
26 Jun ? 22:21:48 25° S 22:24:12 85° WSW 22:28:23 10° NNW visible
27 Jun ? 22:25:29 25° S 22:27:50 77° WSW 22:32:00 10° NNW visible
28 Jun ? 22:29:08 25° S 22:31:27 70° WSW 22:35:37 10° NNW visible
29 Jun ? 22:32:48 25° S 22:35:04 63° W 22:39:13 10° NNW visible
30 Jun ? 22:36:28 25° S 22:38:42 57° W 22:42:48 10° NNW visible
01 Jul ? 21:05:13 10° E 21:07:30 15° ENE 21:09:49 10° NNE visible
01 Jul ? 22:40:08 25° SSW 22:42:19 51° W 22:46:23 10° NNW visible
02 Jul ? 21:08:33 10° ESE 21:11:05 16° ENE 21:13:36 10° NNE visible
02 Jul ? 22:43:47 24° SSW 22:45:56 46° W 22:49:58 10° NNW visible
03 Jul ? 21:11:55 10° ESE 21:14:39 17° ENE 21:17:22 10° NNE visible
03 Jul ? 22:47:27 23° SSW 22:49:34 42° W 22:53:31 10° NNW visible
04 Jul ? 21:15:19 10° ESE 21:18:13 19° ENE 21:21:07 10° NNE visible
04 Jul ? 22:51:06 23° SSW 22:53:11 38° W 22:57:04 10° NNW visible
05 Jul ? 21:18:44 10° ESE 21:21:47 20° ENE 21:24:51 10° NNE visible
05 Jul ? 22:54:46 22° SSW 22:56:48 35° W 23:00:37 10° NNW visible
